IZ1OSY-3 Weather Reports


time (UTC)temp
C
wind
direction
speed
KPH
gust
KPH
rain 1hr
cm
rain 24hr
cm
rain mn
cm
humidity
%
barometer
mb
20260507230218 9 0.0 0.0 0.00 0.00 0.00 99 1014.5
20260507225722 9 0.0 0.0 0.00 0.00 0.00 99 1014.5
20260507224217 10 0.0 0.0 0.00 0.00 0.00 99 1014.5
20260507223721 10 0.0 0.0 0.00 0.00 0.00 99 1014.5
20260507222216 10 0.0 0.0 0.00 0.00 0.00 99 1014.5
20260507221720 10 0.0 0.0 0.00 0.00 0.00 99 1014.5
20260507220216 10 0.0 0.0 0.00 0.00 0.00 99 1014.3
20260507215720 10 0.0 0.0 0.00 0.00 0.00 99 1014.3
20260507214215 10 0.0 0.0 0.00 0.00 0.00 99 1014.1
20260507213718 10 0.0 0.0 0.00 0.00 0.00 99 1014.0
20260507212214 10 0.0 0.0 0.00 0.00 0.00 98 1013.9
20260507211718 10 0.0 0.0 0.00 0.00 0.00 95 1013.9
20260507210213 10 0.0 0.0 0.00 0.00 0.00 90 1014.0
20260507205717 10 0.0 0.0 0.00 0.00 0.00 93 1014.0
20260507204212 10 0.0 0.0 0.00 0.00 0.00 97 1014.0
20260507203716 10 0.0 0.0 0.00 0.00 0.00 99 1014.0
20260507202212 10 0.0 0.0 0.00 0.00 0.00 99 1013.9
20260507201715 10 0.0 0.0 0.00 0.00 0.00 99 1013.9
20260507200211 10 0.0 0.0 0.00 0.00 0.00 99 1013.9
20260507195715 10 0.0 0.0 0.00 0.00 0.00 99 1013.8
20260507194210 11 0.0 0.0 0.00 0.00 0.00 99 1013.6
20260507193713 11 0.0 0.0 0.00 0.00 0.00 99 1013.5
20260507192209 10 0.0 0.0 0.00 0.00 0.00 99 1013.5
20260507191712 10 0.0 0.0 0.00 0.00 0.00 99 1013.4
20260507190208 11 0.0 0.0 0.00 0.00 0.00 99 1013.3
20260507185712 11 0.0 0.0 0.00 0.00 0.00 99 1013.3
20260507184207 11 0.0 0.0 0.00 0.00 0.00 99 1013.2
20260507183711 11 0.0 0.0 0.00 0.00 0.00 99 1013.2
20260507182206 11 0.0 0.0 0.00 0.00 0.00 99 1013.3
20260507181710 11 0.0 0.0 0.00 0.00 0.00 99 1013.2
20260507180206 11 0.0 0.0 0.00 0.00 0.00 99 1013.2
20260507174205 11 0.0 0.0 0.00 0.00 0.00 99 1013.3
20260507173708 11 0.0 0.0 0.00 0.00 0.00 99 1013.3
20260507172204 11 0.0 0.0 0.00 0.00 0.00 99 1013.3
20260507171707 11 0.0 0.0 0.00 0.00 0.00 99 1013.2
20260507170203 11 0.0 0.0 0.00 0.00 0.00 99 1013.2
20260507165707 11 0.0 0.0 0.00 0.00 0.00 99 1013.2
20260507164202 12 0.0 0.0 0.00 0.00 0.00 99 1013.0
20260507163706 12 0.0 0.0 0.00 0.00 0.00 99 1013.0
20260507162201 12 0.0 0.0 0.00 0.00 0.00 99 1013.2
20260507161705 12 0.0 0.0 0.00 0.00 0.00 99 1013.2
20260507160201 11 0.0 0.0 0.00 0.00 0.00 99 1013.1
20260507155704 12 0.0 0.0 0.00 0.00 0.00 99 1013.0
20260507154200 12 0.0 0.0 0.00 0.00 0.00 99 1013.2
20260507153703 12 0.0 0.0 0.00 0.00 0.00 99 1013.2
20260507152159 12 0.0 0.0 0.00 0.00 0.00 90 1013.1
20260507151702 13 0.0 0.0 0.00 0.00 0.00 95 1013.1
20260507150158 13 0.0 0.0 0.00 0.00 0.00 95 1013.0
20260507145702 13 0.0 0.0 0.00 0.00 0.00 99 1013.0
20260507144157 13 0.0 0.0 0.00 0.00 0.00 99 1013.1
20260507143701 13 0.0 0.0 0.00 0.00 0.00 98 1013.1
20260507142156 13 0.0 0.0 0.00 0.00 0.00 99 1013.2
20260507141700 13 0.0 0.0 0.00 0.00 0.00 98 1013.3
20260507140156 13 0.0 0.0 0.00 0.00 0.00 99 1013.4
20260507135659 13 0.0 0.0 0.00 0.00 0.00 99 1013.3
20260507134155 13 0.0 0.0 0.00 0.00 0.00 99 1013.4
20260507133658 13 0.0 0.0 0.00 0.00 0.00 99 1013.5
20260507132154 13 0.0 0.0 0.00 0.00 0.00 99 1013.5
20260507131658 13 0.0 0.0 0.00 0.00 0.00 99 1013.4
20260507130153 12 0.0 0.0 0.00 0.00 0.00 99 1013.4
20260507125657 12 0.0 0.0 0.00 0.00 0.00 99 1013.5
20260507124152 13 0.0 0.0 0.00 0.00 0.00 99 1013.4
20260507123656 13 0.0 0.0 0.00 0.00 0.00 99 1013.4
20260507122151 13 0.0 0.0 0.00 0.00 0.00 99 1013.3
20260507121655 13 0.0 0.0 0.00 0.00 0.00 99 1013.3
20260507120151 13 0.0 0.0 0.00 0.00 0.00 99 1013.4
20260507115655 13 0.0 0.0 0.00 0.00 0.00 99 1013.4
20260507114150 13 0.0 0.0 0.00 0.00 0.00 99 1013.5
20260507113653 12 0.0 0.0 0.00 0.00 0.00 99 1013.5
20260507112149 12 0.0 0.0 0.00 0.00 0.00 99 1013.7
20260507110148 11 0.0 0.0 0.00 0.00 0.00 99 1013.9
20260507105652 11 0.0 0.0 0.00 0.00 0.00 99 1013.8
20260507104147 11 0.0 0.0 0.00 0.00 0.00 99 1013.9
20260507103651 11 0.0 0.0 0.00 0.00 0.00 99 1013.8
20260507102146 11 0.0 0.0 0.00 0.00 0.00 99 1014.0
20260507101650 11 0.0 0.0 0.00 0.00 0.00 99 1014.0
20260507100146 11 0.0 0.0 0.00 0.00 0.00 99 1013.8
20260507095649 11 0.0 0.0 0.00 0.00 0.00 99 1013.8
20260507094145 11 0.0 0.0 0.00 0.00 0.00 99 1013.8
20260507092144 10 0.0 0.0 0.00 0.00 0.00 99 1013.7
20260507091647 10 0.0 0.0 0.00 0.00 0.00 99 1013.7
20260507090143 10 0.0 0.0 0.00 0.00 0.00 99 1013.8
20260507084142 9 0.0 0.0 0.00 0.00 0.00 99 1013.6
20260507083646 9 0.0 0.0 0.00 0.00 0.00 99 1013.6
20260507080140 9 0.0 0.0 0.00 0.00 0.00 99 1013.3
20260507075645 9 0.0 0.0 0.00 0.00 0.00 99 1013.2
20260507074140 9 0.0 0.0 0.00 0.00 0.00 99 1013.2
20260507073643 9 0.0 0.0 0.00 0.00 0.00 99 1013.1
20260507072139 8 0.0 0.0 0.00 0.00 0.00 99 1013.0
20260507071642 9 0.0 0.0 0.00 0.00 0.00 99 1013.0
20260507070138 9 0.0 0.0 0.00 0.00 0.00 99 1012.9
20260507065642 9 0.0 0.0 0.00 0.00 0.00 99 1012.7
20260507064137 9 0.0 0.0 0.00 0.00 0.00 99 1012.6
20260507063641 9 0.0 0.0 0.00 0.00 0.00 99 1012.6
20260507062136 9 0.0 0.0 0.00 0.00 0.00 99 1012.5
20260507061640 9 0.0 0.0 0.00 0.00 0.00 99 1012.4
20260507060136 9 0.0 0.0 0.00 0.00 0.00 99 1012.3
20260507054135 9 0.0 0.0 0.00 0.00 0.00 99 1012.0
20260507053638 10 0.0 0.0 0.00 0.00 0.00 99 1012.1
20260507052134 10 0.0 0.0 0.00 0.00 0.00 99 1011.8
20260507051638 10 0.0 0.0 0.00 0.00 0.00 99 1011.8
20260507050133 10 0.0 0.0 0.00 0.00 0.00 99 1011.6
20260507045637 10 0.0 0.0 0.00 0.00 0.00 99 1011.5
20260507044132 9 0.0 0.0 0.00 0.00 0.00 99 1011.4
20260507043636 9 0.0 0.0 0.00 0.00 0.00 99 1011.5
20260507042131 10 0.0 0.0 0.00 0.00 0.00 99 1011.3
20260507041635 9 0.0 0.0 0.00 0.00 0.00 99 1011.3
20260507040131 10 0.0 0.0 0.00 0.00 0.00 99 1011.3
20260507035634 9 0.0 0.0 0.00 0.00 0.00 99 1011.2
20260507034130 9 0.0 0.0 0.00 0.00 0.00 99 1011.0
20260507032129 10 0.0 0.0 0.00 0.00 0.00 99 1010.9
20260507031632 10 0.0 0.0 0.00 0.00 0.00 99 1010.9
20260507030128 10 0.0 0.0 0.00 0.00 0.00 99 1011.1
20260507025632 10 0.0 0.0 0.00 0.00 0.00 99 1011.0
20260507024127 10 0.0 0.0 0.00 0.00 0.00 99 1011.1
20260507023631 10 0.0 0.0 0.00 0.00 0.00 99 1011.1
20260507022134 10 0.0 0.0 0.00 0.00 0.00 99 1011.0
20260507014124 10 0.0 0.0 0.00 0.00 0.00 99 1010.8
20260507013628 10 0.0 0.0 0.00 0.00 0.00 99 1010.6
20260507012124 10 0.0 0.0 0.00 0.00 0.00 99 1010.7
20260507011627 10 0.0 0.0 0.00 0.00 0.00 99 1010.7
20260507010130 10 0.0 0.0 0.00 0.00 0.00 99 1010.9
20260507005626 10 0.0 0.0 0.00 0.00 0.00 99 1011.0
20260507004122 10 0.0 0.0 0.00 0.00 0.00 99 1011.1
20260507003626 10 0.0 0.0 0.00 0.00 0.00 99 1011.1
20260507002121 10 0.0 0.0 0.00 0.00 0.00 99 1011.0
20260507001625 10 0.0 0.0 0.00 0.00 0.00 99 1011.0
20260507000120 10 0.0 0.0 0.00 0.00 0.00 99 1010.7
20260506235624 10 0.0 0.0 0.00 0.00 0.00 99 1010.8
20260506234119 10 0.0 0.0 0.00 0.00 0.00 99 1010.8
20260506233623 10 0.0 0.0 0.00 0.00 0.00 99 1010.7
20260506232119 10 0.0 0.0 0.00 0.00 0.00 99 1010.5
20260506231622 10 0.0 0.0 0.00 0.00 0.00 99 1010.5